Regional Weather Roundup
Issued by NWS Sioux Falls, SD

Home | Current Version | Previous Version | Text Only | Print | Product List | Glossary On
Versions: 1 2 3 4 5 6 7 8 9 10 11 12 13 14 15 16 17 18 19 20 21 22 23 24 25 26 27 28 29 30 31 32 33 34 35 36 37 38 39 40 41 42 43 44 45 46 47 48 49 50
000
ASUS43 KFSD 062110
RWRFSD

WEATHER ROUNDUP FOR SE SOUTH DAKOTA/SW MINNESOTA/NW IOWA
NATIONAL WEATHER SERVICE SIOUX FALLS SD
400 PM CDT MON JUL 06 2015

NOTE: "FAIR" INDICATES FEW OR NO CLOUDS BELOW 12,000 FEET WITH NO
SIGNIFICANT WEATHER AND OR OBSTRUCTIONS TO VISIBILITY.


SDZ038>040-050-052>070-062200-
SOUTHEAST SOUTH DAKOTA

CITY           SKY/WX    TMP DP  RH WIND       PRES   REMARKS
BROOKINGS      PTSUNNY   70  55  60 N15G25    30.07R
CHAMBERLAIN    MOSUNNY   75  54  48 N16G22    30.10S
HURON          MOSUNNY   74  57  55 N15G23    30.08R HAZE
MADISON        FAIR      72  57  60 N18G26    30.06R
MITCHELL       MOSUNNY   75  59  57 N20G25    30.07R HAZE
SIOUX FALLS    CLOUDY    74  60  61 N15G22    30.03R SMOKE
WINNER         MOCLDY    76  53  44 N20G25    30.12S
YANKTON        SUNNY     77  59  53 N18G24    30.01S
$$

MNZ071-072-080-081-089-090-097-098-062200-
SOUTHWEST MINNESOTA

CITY           SKY/WX    TMP DP  RH WIND       PRES   REMARKS
FAIRMONT       CLOUDY    72  57  60 N18G24    29.96R
JACKSON          N/A     72  61  68 VRB15G23  29.99R HAZE
MARSHALL       MOSUNNY   72  54  53 N21G30    30.01S
PIPESTONE      SUNNY     72  55  56 N13G21    30.04R HAZE
REDWOOD FALLS  CLOUDY    74  58  57 N16G23    29.98S HAZE
TRACY          MOSUNNY   72  61  67 N16G26    30.02R HAZE
WINDOM         MOSUNNY   73  61  64 N14G24    29.99R HAZE
WORTHINGTON    CLOUDY    72  57  60 N21G29    30.01R
$$

IAZ001>003-012>014-020>022-031-032-NEZ013-014-SDZ071-062200-
NORTHWEST IOWA

CITY           SKY/WX    TMP DP  RH WIND       PRES   REMARKS
CHEROKEE       PTSUNNY   72  64  75 N14G23    29.97R HAZE
DENISON        CLOUDY    72  64  78 N13G18    29.93R HAZE
ESTHERVILLE    PTSUNNY   71  58  63 N18G29    29.97R HAZE
LE MARS        PTSUNNY   73  63  68 N17G26    30.00R HAZE
ORANGE CITY    MOSUNNY   72  61  68 N15G24    30.00R HAZE
SHELDON        MOSUNNY   73  66  78 N20       29.98S HAZE
SIOUX CITY     PTSUNNY   75  62  64 N23       29.97S
SPENCER        CLOUDY    73  57  57 N18G29    29.98R HAZE
STORM LAKE     PTSUNNY   72  61  68 N23       29.97S HAZE
$$

ABBREVIATIONS USED IN REMARKS
   TC - TEMPERATURE IN CELSIUS
  WCI - WIND CHILL INDEX
   HX - HEAT INDEX
  VSB - VISIBILITY



USA.gov is the U.S. government's official web portal to all federal, state and local government web resources and services.